EN

Hourly Weather Altes Sekundarschulhaus

Today, 22 January, Friday

Time Temperature Precipitation Wind Pressure Humidity
00:00 +2°C° 0 mm 1 mps 701 mmHg 88%
01:00 +2°C° 0 mm 1 mps 701 mmHg 88%
02:00 +3°C° 0.3 mm 1 mps 700 mmHg 89%
03:00 +2°C° 0.3 mm 2 mps 700 mmHg 91%
04:00 +2°C° 0.3 mm 2 mps 700 mmHg 93%
05:00 +2°C° 0 mm 2 mps 699 mmHg 92%
06:00 +2°C° 0 mm 1 mps 699 mmHg 91%
07:00 +2°C° 0 mm 1 mps 699 mmHg 89%
08:00 +2°C° 0 mm 1 mps 698 mmHg 90%
09:00 +3°C° 0 mm 1 mps 698 mmHg 90%
10:00 +4°C° 0 mm 1 mps 698 mmHg 90%
11:00 +5°C° 0 mm 1 mps 698 mmHg 90%
12:00 +6°C° 0 mm 1 mps 697 mmHg 90%
13:00 +7°C° 0 mm 1 mps 697 mmHg 90%
14:00 +6°C° 0 mm 1 mps 696 mmHg 92%
15:00 +5°C° 0 mm 1 mps 696 mmHg 94%
16:00 +4°C° 0 mm 1 mps 695 mmHg 96%
17:00 +4°C° 0 mm 1 mps 695 mmHg 96%
18:00 +2°C° 0 mm 0 mps 695 mmHg 95%
19:00 +2°C° 0 mm 0 mps 695 mmHg 95%
20:00 +3°C° 0.2 mm 1 mps 695 mmHg 96%
21:00 +3°C° 0.2 mm 1 mps 695 mmHg 96%
22:00 +3°C° 0.2 mm 1 mps 695 mmHg 97%
23:00 +3°C° 1.1 mm 1 mps 695 mmHg 98%

Tomorrow, 23 January, Saturday

Time Temperature Precipitation Wind Pressure Humidity
00:00 +2°C° 1.1 mm 2 mps 696 mmHg 98%
01:00 +2°C° 1.1 mm 2 mps 696 mmHg 98%
02:00 0°C° 1.5 mm 3 mps 697 mmHg 98%
03:00 -1°C° 1.5 mm 4 mps 697 mmHg 98%
04:00 -2°C° 1.5 mm 5 mps 698 mmHg 98%
05:00 -2°C° 0.6 mm 4 mps 698 mmHg 97%
06:00 -1°C° 0.6 mm 3 mps 699 mmHg 97%
07:00 -1°C° 0.6 mm 2 mps 699 mmHg 97%
08:00 -1°C° 0 mm 2 mps 699 mmHg 96%
09:00 +1°C° 0 mm 1 mps 699 mmHg 94%
10:00 +2°C° 0 mm 1 mps 699 mmHg 93%
11:00 +2°C° 0 mm 1 mps 699 mmHg 92%
12:00 +3°C° 0 mm 1 mps 699 mmHg 91%
13:00 +3°C° 0 mm 1 mps 698 mmHg 90%
14:00 +3°C° 0 mm 1 mps 698 mmHg 91%
15:00 +3°C° 0 mm 1 mps 698 mmHg 92%
16:00 +2°C° 0 mm 1 mps 698 mmHg 93%
17:00 +1°C° 0 mm 1 mps 698 mmHg 93%
18:00 0°C° 0 mm 1 mps 698 mmHg 92%
19:00 -1°C° 0 mm 1 mps 698 mmHg 91%
20:00 -1°C° 0 mm 1 mps 698 mmHg 90%
21:00 -1°C° 0 mm 1 mps 698 mmHg 89%
22:00 -2°C° 0 mm 1 mps 698 mmHg 89%
23:00 -2°C° 0 mm 1 mps 698 mmHg 90%

Day after tomorrow, 24 January, Sunday

Time Temperature Precipitation Wind Pressure Humidity
00:00 -2°C° 0 mm 1 mps 698 mmHg 90%
01:00 -2°C° 0 mm 1 mps 698 mmHg 91%
02:00 -3°C° 0.3 mm 2 mps 698 mmHg 91%
03:00 -2°C° 0.3 mm 3 mps 699 mmHg 91%
04:00 -4°C° 0.3 mm 5 mps 699 mmHg 90%
05:00 -3°C° 0.1 mm 4 mps 700 mmHg 92%
06:00 -2°C° 0.1 mm 3 mps 700 mmHg 94%
07:00 -3°C° 0.1 mm 2 mps 701 mmHg 95%
08:00 -2°C° 0.1 mm 2 mps 701 mmHg 94%
09:00 -2°C° 0.1 mm 2 mps 702 mmHg 92%
10:00 -2°C° 0.1 mm 3 mps 702 mmHg 90%
11:00 -1°C° 0 mm 2 mps 702 mmHg 87%
12:00 -1°C° 0 mm 2 mps 702 mmHg 85%
13:00 +2°C° 0 mm 1 mps 701 mmHg 83%
14:00 +2°C° 0 mm 1 mps 701 mmHg 84%
15:00 +2°C° 0 mm 1 mps 701 mmHg 86%
16:00 0°C° 0 mm 0 mps 701 mmHg 88%
17:00 0°C° 0 mm 0 mps 701 mmHg 89%
18:00 -1°C° 0 mm 0 mps 701 mmHg 90%
19:00 -2°C° 0 mm 0 mps 701 mmHg 90%
20:00 -1°C° 0.1 mm 1 mps 701 mmHg 92%
21:00 -1°C° 0.1 mm 1 mps 701 mmHg 94%
22:00 -3°C° 0.1 mm 2 mps 701 mmHg 95%
23:00 -3°C° 0.3 mm 2 mps 701 mmHg 95%

25 January, Monday

Time Temperature Precipitation Wind Pressure Humidity
00:00 -3°C° 0.3 mm 2 mps 702 mmHg 96%
01:00 -3°C° 0.3 mm 2 mps 702 mmHg 96%
02:00 -3°C° 0.3 mm 2 mps 702 mmHg 95%
03:00 -4°C° 0.3 mm 3 mps 703 mmHg 95%
04:00 -4°C° 0.3 mm 3 mps 703 mmHg 94%
05:00 -4°C° 0.3 mm 4 mps 704 mmHg 94%
06:00 -4°C° 0.3 mm 4 mps 704 mmHg 94%
07:00 -5°C° 0.3 mm 5 mps 705 mmHg 94%
08:00 -5°C° 0.4 mm 5 mps 706 mmHg 93%
09:00 -5°C° 0.4 mm 5 mps 707 mmHg 93%
10:00 -5°C° 0.4 mm 5 mps 707 mmHg 92%
11:00 -4°C° 0.2 mm 5 mps 708 mmHg 90%
12:00 -4°C° 0.2 mm 5 mps 708 mmHg 87%
13:00 -2°C° 0.2 mm 5 mps 708 mmHg 85%
14:00 -4°C° 0.1 mm 5 mps 709 mmHg 85%
15:00 -3°C° 0.1 mm 4 mps 709 mmHg 86%
16:00 -3°C° 0.1 mm 4 mps 709 mmHg 87%
17:00 -3°C° 0.4 mm 4 mps 709 mmHg 89%
18:00 -4°C° 0.4 mm 5 mps 710 mmHg 91%
19:00 -4°C° 0.4 mm 5 mps 710 mmHg 92%
20:00 -5°C° 0.3 mm 5 mps 710 mmHg 91%
21:00 -5°C° 0.3 mm 5 mps 711 mmHg 90%
22:00 -5°C° 0.3 mm 5 mps 711 mmHg 89%
23:00 -5°C° 0.2 mm 5 mps 712 mmHg 89%

26 January, Tuesday

Time Temperature Precipitation Wind Pressure Humidity
00:00 -4°C° 0.2 mm 4 mps 712 mmHg 90%
01:00 -4°C° 0.2 mm 4 mps 712 mmHg 90%
02:00 -4°C° 0.1 mm 4 mps 712 mmHg 91%
03:00 -4°C° 0.1 mm 3 mps 712 mmHg 91%
04:00 -4°C° 0.1 mm 3 mps 712 mmHg 91%
05:00 -4°C° 0.1 mm 3 mps 713 mmHg 92%
06:00 -4°C° 0.1 mm 3 mps 713 mmHg 93%
07:00 -4°C° 0.1 mm 3 mps 713 mmHg 94%
08:00 -4°C° 0.1 mm 3 mps 713 mmHg 94%
09:00 -2°C° 0.1 mm 3 mps 714 mmHg 93%
10:00 -2°C° 0.1 mm 3 mps 714 mmHg 93%
11:00 -1°C° 0.1 mm 3 mps 714 mmHg 91%
12:00 -2°C° 0.1 mm 4 mps 714 mmHg 90%
13:00 -1°C° 0.1 mm 4 mps 714 mmHg 89%
14:00 0°C° 0 mm 3 mps 714 mmHg 89%
15:00 +1°C° 0 mm 2 mps 713 mmHg 90%
16:00 +2°C° 0 mm 1 mps 713 mmHg 91%
17:00 +1°C° 0 mm 1 mps 713 mmHg 91%
18:00 0°C° 0 mm 1 mps 713 mmHg 91%
19:00 0°C° 0 mm 1 mps 713 mmHg 92%
20:00 0°C° 0 mm 1 mps 713 mmHg 92%
21:00 0°C° 0 mm 1 mps 713 mmHg 92%
22:00 0°C° 0 mm 1 mps 713 mmHg 92%
23:00 -2°C° 0.2 mm 2 mps 713 mmHg 93%

27 January, Wednesday

Time Temperature Precipitation Wind Pressure Humidity
00:00 -2°C° 0.2 mm 2 mps 712 mmHg 94%
01:00 -2°C° 0.2 mm 2 mps 711 mmHg 96%
02:00 -1°C° 0.1 mm 3 mps 711 mmHg 95%
03:00 0°C° 0.1 mm 3 mps 710 mmHg 95%
04:00 -1°C° 0.1 mm 4 mps 710 mmHg 94%
05:00 0°C° 0.4 mm 4 mps 710 mmHg 95%
06:00 0°C° 0.4 mm 5 mps 710 mmHg 96%
07:00 +1°C° 0.4 mm 5 mps 710 mmHg 97%
08:00 +1°C° 0.4 mm 5 mps 711 mmHg 97%
09:00 +1°C° 0.4 mm 4 mps 712 mmHg 97%
10:00 +1°C° 0.4 mm 4 mps 712 mmHg 97%
11:00 +1°C° 0.2 mm 4 mps 713 mmHg 96%
12:00 +1°C° 0.2 mm 4 mps 713 mmHg 95%
13:00 +3°C° 0.2 mm 4 mps 713 mmHg 94%
14:00 +3°C° 0.2 mm 4 mps 714 mmHg 94%
15:00 +2°C° 0.2 mm 3 mps 714 mmHg 94%
16:00 +2°C° 0.2 mm 3 mps 714 mmHg 94%
17:00 +2°C° 0.1 mm 3 mps 715 mmHg 94%
18:00 +2°C° 0.1 mm 2 mps 715 mmHg 93%
19:00 +2°C° 0.1 mm 2 mps 716 mmHg 93%
20:00 +2°C° 0 mm 2 mps 716 mmHg 93%
21:00 +1°C° 0 mm 2 mps 716 mmHg 92%
22:00 +1°C° 0 mm 2 mps 716 mmHg 92%
23:00 +1°C° 0 mm 1 mps 716 mmHg 90%
Show more